Location: Bucquoy
(50.1391°N, 2.7097°E)
Time: 09:02:27
(UTC+00:00)

ATLAS CENTAUR R/B - Pass Details

Date: 06 May 2021
Orbit: 472 x 671 km, 64.6° (Epoch: 13 June)

Event Time Altitude Azimuth Distance (km) Brightness Sun altitude
Exits shadow 02:39:10 19° 254° (WSW) 1,228 2.6 -13.2°
Maximum altitude 02:41:31 42° 318° (NW) 717 1.9 -12.9°
Drops below altitude 10° 02:45:12 10° 31° (NNE) 1,735 5.2 -12.5°
Sets 02:47:31 0° 38° (NE) 2,657 6.9 -12.2°
